[ hide orbit diagram ]
For accurate long-term ephemerides, please instead use our Horizons system.This orbit viewer was implemented using two-body methods, and hence should not be used for determining accurate long-term trajectories (over several years or decades) or planetary encounter circumstances.
[ revert to old Java-based viewer ]
Orbital Elements at Epoch 2458600.5 (2019-Apr-27.0) TDB
Reference: JPL 21 (heliocentric ecliptic J2000)
Element | Value | Uncertainty (1-sigma) | Units |
e | .2105575777657009 | 4.3499e-08 | |
a | 2.219543350842821 | 8.9444e-09 | au |
q | 1.752201679143389 | 9.9392e-08 | au |
i | 3.806620861230197 | 6.1071e-06 | deg |
node | 1.48893055713996 | 6.4347e-05 | deg |
peri | 291.5907471081914 | 6.5889e-05 | deg |
M | 53.3531623318469 | 1.2934e-05 | deg |
tp | 2458421.500614631278 (2018-Oct-30.00061463) | 4.3247e-05 | TDB |
period | 1207.796799971037 3.31 | 7.3008e-06 1.999e-08 | d yr |
n | .2980633828543285 | 1.8017e-09 | deg/d |
Q | 2.686885022542253 | 1.0828e-08 | au |
|
| | Orbit Determination Parameters
Additional Information
|
[ show covariance matrix ]
Physical Parameter Table
Parameter |
Symbol |
Value |
Units |
Sigma |
Reference |
Notes |
absolute magnitude |
H |
16.3 |
|
n/a |
MPO293712 |
|
|
48880 (1998 HU129) Discovered 1998-Apr-19 by LINEAR at Socorro |
Reference: 20021120/Numbers.arc | Last Updated: 2004-04-19 |
|
|